Regional Weather Roundup
Issued by NWS

Home | Current Version | Previous Version | Graphics & Text | Print | Product List | Glossary On
Versions: 1 2 3 4 5 6 7 8 9 10 11 12 13 14 15 16 17 18 19 20 21 22 23 24 25 26 27 28 29 30 31 32 33 34 35 36 37 38 39 40 41 42 43 44 45 46 47 48 49 50
000
ASUS43 KTOP 241508
RWRKS

WEATHER ROUNDUP FOR KANSAS
NATIONAL WEATHER SERVICE GOODLAND KS
900 AM CST FRI NOV 24 2017

NOTE:  "FAIR" INDICATES FEW OR NO CLOUDS BELOW 12,000 FEET WITH NO
SIGNIFICANT WEATHER AND/OR OBSTRUCTIONS TO VISIBILITY.

KSZ001>006-013>018-027>032-041>047-241600-
NORTHWEST KANSAS

CITY           SKY/WX    TMP DP  RH WIND       PRES   REMARKS
GOODLAND       CLOUDY    52  31  44 W10       29.76S
HAYS           CLOUDY    49  38  65 SW5       29.71S
HILL CITY      SUNNY     54  38  54 W7        29.70F
RUSSELL        CLOUDY    50  40  68 SW10      29.69S
$$

KSZ061>065-074>080-084>089-241600-
SOUTHWEST KANSAS

CITY           SKY/WX    TMP DP  RH WIND       PRES   REMARKS
DODGE CITY     CLOUDY    46  33  60 SW7       29.74F
ELKHART        CLOUDY    58  33  37 W12       29.80S
GARDEN CITY    CLOUDY    44  34  67 W6        29.74F
GREAT BEND     CLOUDY    48  38  68 W7        29.74R
LIBERAL        CLOUDY    45  35  68 W5        29.78S
PRATT          CLOUDY    51  37  58 W7        29.75S
$$

KSZ066>073-081>083-090>101-241600-
SOUTHEAST KANSAS

CITY           SKY/WX    TMP DP  RH WIND       PRES   REMARKS
CHANUTE        MOSUNNY   53  34  48 S15       29.79F
COFFEYVILLE    MOSUNNY   51  35  54 S9        29.83S
HUTCHINSON     MOSUNNY   50  38  63 SW5       29.73S
MEDICINE LODGE   N/A     50  37  61 CALM      29.75S
NEWTON         MOSUNNY   53  36  52 SW16      29.74S
PARSONS        MOSUNNY   49  33  54 S9        29.83S
WICHITA INTL   CLOUDY    50  39  66 S8        29.75S
WICHITA JABRA  MOSUNNY   53  37  54 S13       29.75S
WICHITA MCCONL MOSUNNY   51  35  54 SW9       29.75S
WINFIELD       MOSUNNY   54  38  54 S8        29.78F
$$

KSZ007>012-019>026-033>040-048>060-102>105-241600-
NORTHEAST KANSAS

CITY           SKY/WX    TMP DP  RH WIND       PRES   REMARKS
CONCORDIA      CLOUDY    54  40  59 SW14      29.64S
EMPORIA        MOSUNNY   52  36  54 S14       29.73S
LAWRENCE       SUNNY     56  36  47 S8        29.71F
MANHATTAN      MOSUNNY   57  37  47 SW14      29.67F
MARYSVILLE     MOSUNNY   54  39  58 SW13      29.62F
OLATHE IND     SUNNY     52  36  54 S16       29.72F
OLATHE EXE     SUNNY     52  35  52 SW17G25   29.72F
SALINA         MOSUNNY   55  40  56 SW13      29.69S
TOPEKA BILLARD SUNNY     55  37  50 SW10      29.68F
TOPEKA FORBES  SUNNY     54  37  52 S18       29.68F
$$



USA.gov is the U.S. government's official web portal to all federal, state and local government web resources and services.